Weather History for CXTO - July, 2013

Change the Weather History Date:

Sunday, July 7, 2013

  Actual Average Record
Temperature  
Mean Temperature 75 °F -  
Max Temperature 80 °F - - ()
Min Temperature 70 °F - - ()
Cooling Degree Days 10    
Growing Degree Days 25 (Base 50)    
Moisture  
Dew Point 69 °F    
Average Humidity 85    
Maximum Humidity 94    
Minimum Humidity 69    
Precipitation  
Precipitation 1.34 in - - ()
Sea Level Pressure  
Sea Level Pressure 29.98 in    
Wind  
Wind Speed - ()    
Max Wind Speed -    
Max Gust Speed -    
T = Trace of Precipitation, MM = Missing Value Source: Averaged Metar Reports

Daily Weather History Graph

Daily Weather History Graph

Search for Another Location

Airport or City:

Trip Planner

Search our weather history database for the weather conditions in past years. The results will help you decide how hot, cold, wet, or windy it might be!

Date:

Astronomy

Jul. 07, 2013 Rise Set
Actual Time 5:43 AM EDT 9:01 PM EDT
Civil Twilight 5:08 AM EDT 9:36 PM EDT
Nautical Twilight 4:22 AM EDT 10:22 PM EDT
Astronomical Twilight 3:25 AM EDT 11:18 PM EDT
Moon 5:20 AM EDT (7/7) 8:21 PM EDT (7/7)
Length of Visible Light 16h 28m
Length of Day
15h 17m
Waning Crescent, 0% of the Moon is Illuminated
Jul 7
Waning Crescent
Jul 8
New
Jul 15
First Quarter
Jul 22
Full
Jul 29
Last Quarter

Hourly Weather History & Observations

Time (EDT) Temp. Dew Point Humidity Pressure Visibility Wind Dir Wind Speed Gust Speed Precip Events Conditions
12:00 AM 76.3 °F 66.6 °F 72% 30.04 in - North - - N/A   Unknown
1:00 AM 76.3 °F 66.9 °F 73% 30.04 in - North - - N/A   Unknown
2:00 AM 73 °F 69 °F 82% 30.04 in - Calm Calm - -  
2:00 AM 73.2 °F 68.5 °F 85% 30.04 in - North - - N/A   Unknown
3:00 AM 71.2 °F 68.7 °F 92% 30.02 in - North - - 0.10 in   Unknown
4:00 AM 71.2 °F 69.3 °F 93% 30.00 in - North - - 0.06 in   Unknown
5:00 AM 71.1 °F 68.5 °F 92% 30.00 in - North - - N/A   Unknown
6:00 AM 70.9 °F 68.5 °F 92% 30.00 in - North - - N/A   Unknown
7:00 AM 71.4 °F 69.3 °F 93% 30.00 in - North - - N/A   Unknown
8:00 AM 73 °F 70 °F 88% 29.99 in - Calm Calm - -  
8:00 AM 72.9 °F 70.2 °F 91% 29.99 in - North - - N/A   Unknown
9:00 AM 72.9 °F 70.2 °F 91% 30.00 in - North - - N/A   Unknown
10:00 AM 75.7 °F 69.8 °F 82% 29.99 in - North - - N/A   Unknown
11:00 AM 77.0 °F 69.4 °F 77% 29.99 in - North - - N/A   Unknown
12:00 PM 77.0 °F 68.9 °F 76% 29.99 in - North - - N/A   Unknown
1:00 PM 79.0 °F 68.7 °F 71% 29.97 in - North - - N/A   Unknown
2:00 PM 77 °F 69 °F 69% 29.96 in - Calm Calm - -  
2:00 PM 77.4 °F 68.7 °F 75% 29.96 in - North - - N/A   Unknown
3:00 PM 74.7 °F 68.5 °F 81% 29.96 in - North - - 0.03 in   Unknown
4:00 PM 77.4 °F 69.1 °F 76% 29.93 in - North - - 0.01 in   Unknown
5:00 PM 72.7 °F 70.5 °F 93% 29.94 in - North - - 0.33 in   Unknown
6:00 PM 72.3 °F 70.2 °F 93% 29.94 in - North - - 0.59 in   Unknown
7:00 PM 72.5 °F 69.6 °F 91% 29.94 in - North - - 0.02 in   Unknown
8:00 PM 72 °F 70 °F 91% 29.95 in - Calm Calm - -  
8:00 PM 71.8 °F 70.0 °F 94% 29.95 in - North - - 0.35 in   Unknown
9:00 PM 71.8 °F 70.0 °F 94% 29.95 in - North - - N/A   Unknown
10:00 PM 72.1 °F 70.3 °F 94% 29.96 in - North - - N/A   Unknown
11:00 PM 71.6 °F 69.6 °F 93% 29.97 in - North - - N/A   Unknown